Time,TemperatureF,DewpointF,PressureIn,WindDirection,WindDirectionDegrees,WindSpeedMPH,WindSpeedGustMPH,Humidity,HourlyPrecipIn,Conditions,Clouds,dailyrainin,SoftwareType,DateUTC
2013-01-16 00:01:00,43.7,32.3,30.42,SSE,165,2.0,4.0,64,0.00,,,0.00,Wunderground v.1.13,2013-01-16 08:01:00,
2013-01-16 00:11:00,43.3,31.9,30.41,South,175,3.0,5.0,64,0.00,,,0.00,Wunderground v.1.13,2013-01-16 08:11:00,
2013-01-16 00:16:00,43.2,32.2,30.41,South,176,3.0,4.0,65,0.00,,,0.00,Wunderground v.1.13,2013-01-16 08:16:00,
2013-01-16 00:21:00,43.2,31.8,30.41,SSE,165,4.0,4.0,64,0.00,,,0.00,Wunderground v.1.13,2013-01-16 08:21:00,
2013-01-16 00:26:00,43.1,31.7,30.41,SSE,161,3.0,3.0,64,0.00,,,0.00,Wunderground v.1.13,2013-01-16 08:26:00,
2013-01-16 00:31:00,43.2,31.8,30.41,SSE,165,3.0,4.0,64,0.00,,,0.00,Wunderground v.1.13,2013-01-16 08:31:00,
2013-01-16 00:36:00,43.5,31.7,30.41,South,171,4.0,4.0,63,0.00,,,0.00,Wunderground v.1.13,2013-01-16 08:36:00,
2013-01-16 00:41:00,43.3,31.5,30.41,SSE,167,3.0,3.0,63,0.00,,,0.00,Wunderground v.1.13,2013-01-16 08:41:00,
2013-01-16 00:46:00,43.0,31.6,30.41,South,180,4.0,4.0,64,0.00,,,0.00,Wunderground v.1.13,2013-01-16 08:46:00,
2013-01-16 00:56:00,43.2,31.8,30.41,South,172,4.0,6.0,64,0.00,,,0.00,Wunderground v.1.13,2013-01-16 08:56:00,
2013-01-16 01:01:00,43.2,31.8,30.41,South,170,4.0,4.0,64,0.00,,,0.00,Wunderground v.1.13,2013-01-16 09:01:00,
2013-01-16 01:11:00,43.3,32.3,30.41,South,180,4.0,4.0,65,0.00,,,0.00,Wunderground v.1.13,2013-01-16 09:11:00,
2013-01-16 01:21:00,43.6,32.6,30.41,SSE,166,3.0,3.0,65,0.00,,,0.00,Wunderground v.1.13,2013-01-16 09:21:00,
2013-01-16 01:26:00,43.8,32.4,30.41,SSE,163,3.0,3.0,64,0.00,,,0.00,Wunderground v.1.13,2013-01-16 09:26:00,
2013-01-16 01:31:00,43.8,32.4,30.41,SSE,157,3.0,3.0,64,0.00,,,0.00,Wunderground v.1.13,2013-01-16 09:31:00,
2013-01-16 01:36:00,43.4,32.4,30.41,SSE,159,3.0,3.0,65,0.00,,,0.00,Wunderground v.1.13,2013-01-16 09:36:00,
2013-01-16 01:41:00,43.4,32.8,30.41,SSE,155,3.0,3.0,66,0.00,,,0.00,Wunderground v.1.13,2013-01-16 09:41:00,
2013-01-16 01:51:00,43.3,32.7,30.41,SSE,163,4.0,4.0,66,0.00,,,0.00,Wunderground v.1.13,2013-01-16 09:51:00,
2013-01-16 01:56:00,42.8,32.2,30.41,SE,144,4.0,5.0,66,0.00,,,0.00,Wunderground v.1.13,2013-01-16 09:56:00,
2013-01-16 02:01:00,42.5,32.3,30.41,SSE,156,4.0,4.0,67,0.00,,,0.00,Wunderground v.1.13,2013-01-16 10:01:00,
2013-01-16 02:06:00,42.3,31.7,30.41,South,180,4.0,4.0,66,0.00,,,0.00,Wunderground v.1.13,2013-01-16 10:06:00,
2013-01-16 02:11:00,42.3,31.7,30.41,South,186,5.0,9.0,66,0.00,,,0.00,Wunderground v.1.13,2013-01-16 10:11:00,
2013-01-16 02:16:00,42.5,31.9,30.41,South,175,6.0,6.0,66,0.00,,,0.00,Wunderground v.1.13,2013-01-16 10:16:00,
2013-01-16 02:26:00,42.4,31.8,30.41,SSE,163,3.0,3.0,66,0.00,,,0.00,Wunderground v.1.13,2013-01-16 10:26:00,
2013-01-16 02:31:00,42.5,31.9,30.41,South,173,3.0,6.0,66,0.00,,,0.00,Wunderground v.1.13,2013-01-16 10:31:00,
2013-01-16 02:36:00,42.4,31.8,30.41,South,178,4.0,4.0,66,0.00,,,0.00,Wunderground v.1.13,2013-01-16 10:36:00,
2013-01-16 02:41:00,42.1,31.6,30.41,South,176,4.0,4.0,66,0.00,,,0.00,Wunderground v.1.13,2013-01-16 10:41:00,
2013-01-16 02:46:00,41.8,31.6,30.41,South,186,5.0,10.0,67,0.00,,,0.00,Wunderground v.1.13,2013-01-16 10:46:00,
2013-01-16 02:51:00,41.6,31.4,30.41,SSE,161,5.0,5.0,67,0.00,,,0.00,Wunderground v.1.13,2013-01-16 10:51:00,
2013-01-16 02:56:00,41.6,31.4,30.41,South,176,4.0,4.0,67,0.00,,,0.00,Wunderground v.1.13,2013-01-16 10:56:00,
2013-01-16 03:06:00,41.4,31.3,30.41,SSE,161,3.0,4.0,67,0.00,,,0.00,Wunderground v.1.13,2013-01-16 11:06:00,
2013-01-16 03:11:00,41.6,31.1,30.41,SSE,165,3.0,5.0,66,0.00,,,0.00,Wunderground v.1.13,2013-01-16 11:11:00,
2013-01-16 03:16:00,42.0,31.5,30.41,SSE,153,4.0,6.0,66,0.00,,,0.00,Wunderground v.1.13,2013-01-16 11:16:00,
2013-01-16 03:21:00,42.0,31.1,30.41,South,178,4.0,6.0,65,0.00,,,0.00,Wunderground v.1.13,2013-01-16 11:21:00,
2013-01-16 03:26:00,41.8,30.9,30.41,South,173,4.0,5.0,65,0.00,,,0.00,Wunderground v.1.13,2013-01-16 11:26:00,
2013-01-16 03:31:00,41.5,30.6,30.41,South,180,4.0,4.0,65,0.00,,,0.00,Wunderground v.1.13,2013-01-16 11:31:00,
2013-01-16 03:36:00,41.3,30.8,30.41,South,180,4.0,5.0,66,0.00,,,0.00,Wunderground v.1.13,2013-01-16 11:36:00,
2013-01-16 03:46:00,41.4,30.9,30.41,SSE,168,5.0,5.0,66,0.00,,,0.00,Wunderground v.1.13,2013-01-16 11:46:00,
2013-01-16 03:51:00,41.0,30.9,30.40,South,184,5.0,5.0,67,0.00,,,0.00,Wunderground v.1.13,2013-01-16 11:51:00,
2013-01-16 03:56:00,40.9,30.8,30.40,South,186,6.0,7.0,67,0.00,,,0.00,Wunderground v.1.13,2013-01-16 11:56:00,
2013-01-16 04:01:00,40.9,30.8,30.40,South,176,6.0,12.0,67,0.00,,,0.00,Wunderground v.1.13,2013-01-16 12:01:00,
2013-01-16 04:11:00,41.6,31.1,30.40,South,180,6.0,6.0,66,0.00,,,0.00,Wunderground v.1.13,2013-01-16 12:11:00,
2013-01-16 04:16:00,41.4,30.9,30.40,South,190,7.0,10.0,66,0.00,,,0.00,Wunderground v.1.13,2013-01-16 12:16:00,
2013-01-16 04:26:00,41.4,30.9,30.40,South,186,8.0,8.0,66,0.00,,,0.00,Wunderground v.1.13,2013-01-16 12:26:00,
2013-01-16 04:31:00,41.4,30.9,30.40,SSW,193,6.0,11.0,66,0.00,,,0.00,Wunderground v.1.13,2013-01-16 12:31:00,
2013-01-16 04:36:00,41.2,30.7,30.39,South,175,5.0,5.0,66,0.00,,,0.00,Wunderground v.1.13,2013-01-16 12:36:00,
2013-01-16 04:41:00,41.1,30.6,30.39,South,178,5.0,5.0,66,0.00,,,0.00,Wunderground v.1.13,2013-01-16 12:41:00,
2013-01-16 04:46:00,41.4,30.9,30.39,South,173,6.0,6.0,66,0.00,,,0.00,Wunderground v.1.13,2013-01-16 12:46:00,
2013-01-16 04:51:00,41.3,30.4,30.39,South,173,6.0,6.0,65,0.00,,,0.00,Wunderground v.1.13,2013-01-16 12:51:00,
2013-01-16 05:01:00,40.9,30.8,30.39,SSE,162,8.0,8.0,67,0.00,,,0.00,Wunderground v.1.13,2013-01-16 13:01:00,
2013-01-16 05:06:00,41.0,30.9,30.39,South,172,7.0,9.0,67,0.00,,,0.00,Wunderground v.1.13,2013-01-16 13:06:00,
2013-01-16 05:11:00,41.2,30.7,30.39,South,190,7.0,13.0,66,0.00,,,0.00,Wunderground v.1.13,2013-01-16 13:11:00,
2013-01-16 05:16:00,41.2,30.7,30.39,South,187,7.0,12.0,66,0.00,,,0.00,Wunderground v.1.13,2013-01-16 13:16:00,
2013-01-16 05:26:00,40.4,30.7,30.39,South,182,6.0,12.0,68,0.00,,,0.00,Wunderground v.1.13,2013-01-16 13:26:00,
2013-01-16 05:31:00,40.4,30.3,30.39,South,187,8.0,11.0,67,0.00,,,0.00,Wunderground v.1.13,2013-01-16 13:31:00,
2013-01-16 05:36:00,40.5,30.4,30.39,South,179,7.0,7.0,67,0.00,,,0.00,Wunderground v.1.13,2013-01-16 13:36:00,
2013-01-16 05:41:00,40.5,30.4,30.39,SSE,150,5.0,6.0,67,0.00,,,0.00,Wunderground v.1.13,2013-01-16 13:41:00,
2013-01-16 05:46:00,40.7,30.6,30.39,South,169,4.0,7.0,67,0.00,,,0.00,Wunderground v.1.13,2013-01-16 13:46:00,
2013-01-16 05:51:00,40.8,30.7,30.39,SSE,157,4.0,5.0,67,0.00,,,0.00,Wunderground v.1.13,2013-01-16 13:51:00,
2013-01-16 05:56:00,40.8,30.7,30.39,SSE,167,5.0,7.0,67,0.00,,,0.00,Wunderground v.1.13,2013-01-16 13:56:00,
2013-01-16 06:06:00,40.4,30.7,30.39,South,190,6.0,11.0,68,0.00,,,0.00,Wunderground v.1.13,2013-01-16 14:06:00,
2013-01-16 06:11:00,40.7,31.0,30.39,South,174,7.0,7.0,68,0.00,,,0.00,Wunderground v.1.13,2013-01-16 14:11:00,
2013-01-16 06:16:00,40.7,30.6,30.39,SSE,153,6.0,6.0,67,0.00,,,0.00,Wunderground v.1.13,2013-01-16 14:16:00,
2013-01-16 06:21:00,40.5,30.4,30.39,South,178,5.0,5.0,67,0.00,,,0.00,Wunderground v.1.13,2013-01-16 14:21:00,
2013-01-16 06:26:00,40.7,30.6,30.39,SSE,165,5.0,5.0,67,0.00,,,0.00,Wunderground v.1.13,2013-01-16 14:26:00,
2013-01-16 06:31:00,41.0,30.9,30.39,SSE,163,5.0,5.0,67,0.00,,,0.00,Wunderground v.1.13,2013-01-16 14:31:00,
2013-01-16 06:41:00,41.5,31.0,30.39,SSE,167,4.0,7.0,66,0.00,,,0.00,Wunderground v.1.13,2013-01-16 14:41:00,
2013-01-16 06:46:00,41.7,31.2,30.39,South,176,5.0,7.0,66,0.00,,,0.00,Wunderground v.1.13,2013-01-16 14:46:00,
2013-01-16 06:51:00,41.3,30.8,30.39,SSE,166,5.0,5.0,66,0.00,,,0.00,Wunderground v.1.13,2013-01-16 14:51:00,
2013-01-16 06:56:00,41.1,31.0,30.39,SSW,193,6.0,12.0,67,0.00,,,0.00,Wunderground v.1.13,2013-01-16 14:56:00,
2013-01-16 07:01:00,41.0,30.5,30.39,SSE,168,6.0,6.0,66,0.00,,,0.00,Wunderground v.1.13,2013-01-16 15:01:00,
2013-01-16 07:11:00,40.8,30.7,30.40,SSE,168,7.0,7.0,67,0.00,,,0.00,Wunderground v.1.13,2013-01-16 15:11:00,
2013-01-16 07:16:00,40.8,30.7,30.39,SSE,167,7.0,10.0,67,0.00,,,0.00,Wunderground v.1.13,2013-01-16 15:16:00,
2013-01-16 07:21:00,40.7,30.6,30.40,South,180,6.0,7.0,67,0.00,,,0.00,Wunderground v.1.13,2013-01-16 15:21:00,
2013-01-16 07:26:00,40.9,30.8,30.40,SSE,167,5.0,6.0,67,0.00,,,0.00,Wunderground v.1.13,2013-01-16 15:26:00,
2013-01-16 07:31:00,41.1,31.0,30.40,South,174,6.0,9.0,67,0.00,,,0.00,Wunderground v.1.13,2013-01-16 15:31:00,
2013-01-16 07:36:00,41.2,31.1,30.40,South,180,7.0,7.0,67,0.00,,,0.00,Wunderground v.1.13,2013-01-16 15:36:00,
2013-01-16 07:41:00,41.1,31.0,30.40,South,188,6.0,6.0,67,0.00,,,0.00,Wunderground v.1.13,2013-01-16 15:41:00,
2013-01-16 07:46:00,40.7,31.0,30.40,South,173,6.0,13.0,68,0.00,,,0.00,Wunderground v.1.13,2013-01-16 15:46:00,
2013-01-16 07:56:00,40.8,31.1,30.40,South,178,7.0,7.0,68,0.00,,,0.00,Wunderground v.1.13,2013-01-16 15:56:00,
2013-01-16 08:01:00,41.0,30.9,30.41,SSE,157,7.0,7.0,67,0.00,,,0.00,Wunderground v.1.13,2013-01-16 16:01:00,
2013-01-16 08:06:00,41.0,30.9,30.41,South,178,6.0,6.0,67,0.00,,,0.00,Wunderground v.1.13,2013-01-16 16:06:00,
2013-01-16 08:11:00,41.0,31.2,30.41,South,170,4.0,4.0,68,0.00,,,0.00,Wunderground v.1.13,2013-01-16 16:11:00,
2013-01-16 08:16:00,41.6,31.8,30.41,SSE,165,5.0,5.0,68,0.00,,,0.00,Wunderground v.1.13,2013-01-16 16:16:00,
2013-01-16 08:26:00,43.0,31.6,30.41,South,169,4.0,4.0,64,0.00,,,0.00,Wunderground v.1.13,2013-01-16 16:26:00,
2013-01-16 08:36:00,44.1,31.9,30.41,South,179,6.0,7.0,62,0.00,,,0.00,Wunderground v.1.13,2013-01-16 16:36:00,
2013-01-16 08:41:00,44.7,32.1,30.41,South,189,6.0,7.0,61,0.00,,,0.00,Wunderground v.1.13,2013-01-16 16:41:00,
2013-01-16 08:51:00,46.0,32.9,30.41,South,178,5.0,5.0,60,0.00,,,0.00,Wunderground v.1.13,2013-01-16 16:51:00,
2013-01-16 08:56:00,46.5,32.9,30.41,South,182,4.0,4.0,59,0.00,,,0.00,Wunderground v.1.13,2013-01-16 16:56:00,
2013-01-16 09:01:00,47.5,33.0,30.41,South,174,4.0,4.0,57,0.00,,,0.00,Wunderground v.1.13,2013-01-16 17:01:00,
2013-01-16 09:11:00,48.8,33.3,30.40,South,173,3.0,4.0,55,0.00,,,0.00,Wunderground v.1.13,2013-01-16 17:11:00,
2013-01-16 09:16:00,49.8,33.3,30.40,South,182,3.0,3.0,53,0.00,,,0.00,Wunderground v.1.13,2013-01-16 17:16:00,
2013-01-16 09:21:00,51.0,33.0,30.40,South,190,4.0,4.0,50,0.00,,,0.00,Wunderground v.1.13,2013-01-16 17:21:00,
2013-01-16 09:26:00,51.5,33.5,30.40,South,178,3.0,3.0,50,0.00,,,0.00,Wunderground v.1.13,2013-01-16 17:26:00,
2013-01-16 09:31:00,52.1,33.5,30.40,South,186,3.0,5.0,49,0.00,,,0.00,Wunderground v.1.13,2013-01-16 17:31:00,
2013-01-16 09:36:00,53.3,33.6,30.40,South,176,4.0,4.0,47,0.00,,,0.00,Wunderground v.1.13,2013-01-16 17:36:00,
2013-01-16 09:41:00,54.0,34.2,30.39,South,191,4.0,6.0,47,0.00,,,0.00,Wunderground v.1.13,2013-01-16 17:41:00,
2013-01-16 09:46:00,54.9,33.9,30.39,South,186,3.0,7.0,45,0.00,,,0.00,Wunderground v.1.13,2013-01-16 17:46:00,
2013-01-16 09:51:00,55.7,34.1,30.39,South,184,3.0,4.0,44,0.00,,,0.00,Wunderground v.1.13,2013-01-16 17:51:00,
2013-01-16 10:01:00,56.9,34.6,30.39,South,184,4.0,6.0,43,0.00,,,0.00,Wunderground v.1.13,2013-01-16 18:01:00,
2013-01-16 10:06:00,57.6,34.7,30.38,South,183,4.0,4.0,42,0.00,,,0.00,Wunderground v.1.13,2013-01-16 18:06:00,
2013-01-16 10:11:00,58.6,35.0,30.38,South,180,4.0,4.0,41,0.00,,,0.00,Wunderground v.1.13,2013-01-16 18:11:00,
2013-01-16 10:16:00,59.5,35.1,30.38,South,177,2.0,2.0,40,0.00,,,0.00,Wunderground v.1.13,2013-01-16 18:16:00,
2013-01-16 10:21:00,60.0,35.0,30.38,South,177,2.0,5.0,39,0.00,,,0.00,Wunderground v.1.13,2013-01-16 18:21:00,
2013-01-16 10:26:00,60.5,34.1,30.37,South,181,3.0,3.0,37,0.00,,,0.00,Wunderground v.1.13,2013-01-16 18:26:00,
2013-01-16 10:36:00,61.4,34.2,30.36,South,187,4.0,4.0,36,0.00,,,0.00,Wunderground v.1.13,2013-01-16 18:36:00,
2013-01-16 10:41:00,62.0,33.3,30.36,South,189,4.0,4.0,34,0.00,,,0.00,Wunderground v.1.13,2013-01-16 18:41:00,
2013-01-16 10:51:00,63.2,32.8,30.36,South,188,3.0,3.0,32,0.00,,,0.00,Wunderground v.1.13,2013-01-16 18:51:00,
2013-01-16 11:01:00,63.7,36.9,30.35,South,184,1.0,1.0,37,0.00,,,0.00,Wunderground v.1.13,2013-01-16 19:01:00,
2013-01-16 11:06:00,63.5,37.4,30.35,South,184,0.0,0.0,38,0.00,,,0.00,Wunderground v.1.13,2013-01-16 19:06:00,
2013-01-16 11:11:00,62.6,35.3,30.34,ENE,59,1.0,2.0,36,0.00,,,0.00,Wunderground v.1.13,2013-01-16 19:11:00,
2013-01-16 11:16:00,62.3,35.7,30.34,ENE,59,2.0,2.0,37,0.00,,,0.00,Wunderground v.1.13,2013-01-16 19:16:00,
2013-01-16 11:21:00,62.7,39.3,30.34,ENE,59,2.0,2.0,42,0.00,,,0.00,Wunderground v.1.13,2013-01-16 19:21:00,
2013-01-16 11:26:00,63.3,37.2,30.33,NE,49,2.0,2.0,38,0.00,,,0.00,Wunderground v.1.13,2013-01-16 19:26:00,
2013-01-16 11:31:00,63.5,38.1,30.33,NE,49,2.0,2.0,39,0.00,,,0.00,Wunderground v.1.13,2013-01-16 19:31:00,
2013-01-16 11:36:00,63.6,36.8,30.33,NNE,32,2.0,3.0,37,0.00,,,0.00,Wunderground v.1.13,2013-01-16 19:36:00,
2013-01-16 11:46:00,63.1,35.0,30.32,ENE,65,3.0,9.0,35,0.00,,,0.00,Wunderground v.1.13,2013-01-16 19:46:00,
2013-01-16 11:51:00,63.3,31.3,30.32,ENE,74,4.0,4.0,30,0.00,,,0.00,Wunderground v.1.13,2013-01-16 19:51:00,
2013-01-16 11:56:00,63.8,29.1,30.32,ENE,68,3.0,3.0,27,0.00,,,0.00,Wunderground v.1.13,2013-01-16 19:56:00,
2013-01-16 12:01:00,64.3,29.6,30.31,ENE,69,3.0,3.0,27,0.00,,,0.00,Wunderground v.1.13,2013-01-16 20:01:00,
2013-01-16 12:06:00,65.0,31.1,30.31,ENE,66,2.0,2.0,28,0.00,,,0.00,Wunderground v.1.13,2013-01-16 20:06:00,
2013-01-16 12:11:00,65.3,29.5,30.30,East,101,1.0,1.0,26,0.00,,,0.00,Wunderground v.1.13,2013-01-16 20:11:00,
2013-01-16 12:16:00,65.7,28.9,30.30,ENE,67,2.0,2.0,25,0.00,,,0.00,Wunderground v.1.13,2013-01-16 20:16:00,
2013-01-16 12:21:00,65.6,28.8,30.30,ENE,69,3.0,5.0,25,0.00,,,0.00,Wunderground v.1.13,2013-01-16 20:21:00,
2013-01-16 12:26:00,65.9,28.1,30.29,ENE,64,3.0,3.0,24,0.00,,,0.00,Wunderground v.1.13,2013-01-16 20:26:00,
2013-01-16 12:36:00,66.5,30.5,30.28,ENE,67,2.0,4.0,26,0.00,,,0.00,Wunderground v.1.13,2013-01-16 20:36:00,
2013-01-16 12:41:00,66.6,30.6,30.28,ENE,69,1.0,1.0,26,0.00,,,0.00,Wunderground v.1.13,2013-01-16 20:41:00,
2013-01-16 12:46:00,66.6,30.6,30.27,ENE,61,1.0,1.0,26,0.00,,,0.00,Wunderground v.1.13,2013-01-16 20:46:00,
2013-01-16 12:51:00,66.8,30.8,30.27,East,83,1.0,1.0,26,0.00,,,0.00,Wunderground v.1.13,2013-01-16 20:51:00,
2013-01-16 12:56:00,67.2,31.1,30.27,ENE,61,1.0,1.0,26,0.00,,,0.00,Wunderground v.1.13,2013-01-16 20:56:00,
2013-01-16 13:01:00,67.1,32.0,30.27,ENE,64,1.0,6.0,27,0.00,,,0.00,Wunderground v.1.13,2013-01-16 21:01:00,
2013-01-16 13:06:00,67.5,31.4,30.26,East,79,1.0,1.0,26,0.00,,,0.00,Wunderground v.1.13,2013-01-16 21:06:00,
2013-01-16 13:11:00,67.5,28.4,30.26,ENE,73,1.0,2.0,23,0.00,,,0.00,Wunderground v.1.13,2013-01-16 21:11:00,
2013-01-16 13:16:00,66.4,30.4,30.26,East,92,2.0,5.0,26,0.00,,,0.00,Wunderground v.1.13,2013-01-16 21:16:00,
2013-01-16 13:26:00,65.9,30.0,30.26,East,79,3.0,3.0,26,0.00,,,0.00,Wunderground v.1.13,2013-01-16 21:26:00,
2013-01-16 13:36:00,66.3,29.4,30.25,East,84,3.0,5.0,25,0.00,,,0.00,Wunderground v.1.13,2013-01-16 21:36:00,
2013-01-16 13:41:00,66.6,30.6,30.25,ENE,57,3.0,3.0,26,0.00,,,0.00,Wunderground v.1.13,2013-01-16 21:41:00,
2013-01-16 13:46:00,66.2,29.3,30.25,ENE,61,3.0,3.0,25,0.00,,,0.00,Wunderground v.1.13,2013-01-16 21:46:00,
2013-01-16 13:51:00,66.2,30.3,30.25,ENE,74,4.0,6.0,26,0.00,,,0.00,Wunderground v.1.13,2013-01-16 21:51:00,
2013-01-16 13:56:00,66.5,29.6,30.25,ENE,70,5.0,5.0,25,0.00,,,0.00,Wunderground v.1.13,2013-01-16 21:56:00,
2013-01-16 14:01:00,66.4,29.5,30.25,ENE,68,5.0,9.0,25,0.00,,,0.00,Wunderground v.1.13,2013-01-16 22:01:00,
2013-01-16 14:06:00,65.9,29.1,30.24,NE,56,6.0,6.0,25,0.00,,,0.00,Wunderground v.1.13,2013-01-16 22:06:00,
2013-01-16 14:11:00,66.2,29.3,30.24,ENE,69,7.0,7.0,25,0.00,,,0.00,Wunderground v.1.13,2013-01-16 22:11:00,
2013-01-16 14:21:00,67.1,29.1,30.24,ENE,75,3.0,4.0,24,0.00,,,0.00,Wunderground v.1.13,2013-01-16 22:21:00,
2013-01-16 14:26:00,66.4,29.5,30.24,ENE,60,5.0,7.0,25,0.00,,,0.00,Wunderground v.1.13,2013-01-16 22:26:00,
2013-01-16 14:31:00,66.5,30.5,30.23,ENE,76,5.0,5.0,26,0.00,,,0.00,Wunderground v.1.13,2013-01-16 22:31:00,
2013-01-16 14:36:00,67.4,29.3,30.23,ENE,65,3.0,4.0,24,0.00,,,0.00,Wunderground v.1.13,2013-01-16 22:36:00,
2013-01-16 14:41:00,67.6,28.5,30.23,ENE,59,2.0,2.0,23,0.00,,,0.00,Wunderground v.1.13,2013-01-16 22:41:00,
2013-01-16 14:46:00,66.3,31.3,30.23,NE,55,4.0,6.0,27,0.00,,,0.00,Wunderground v.1.13,2013-01-16 22:46:00,
2013-01-16 14:51:00,65.8,29.9,30.23,East,96,6.0,6.0,26,0.00,,,0.00,Wunderground v.1.13,2013-01-16 22:51:00,
2013-01-16 14:56:00,66.7,28.7,30.23,ENE,65,5.0,5.0,24,0.00,,,0.00,Wunderground v.1.13,2013-01-16 22:56:00,
2013-01-16 15:06:00,67.4,30.3,30.23,ENE,75,4.0,4.0,25,0.00,,,0.00,Wunderground v.1.13,2013-01-16 23:06:00,
2013-01-16 15:11:00,66.7,31.6,30.23,ENE,60,5.0,5.0,27,0.00,,,0.00,Wunderground v.1.13,2013-01-16 23:11:00,
2013-01-16 15:16:00,66.9,31.8,30.23,NE,56,4.0,4.0,27,0.00,,,0.00,Wunderground v.1.13,2013-01-16 23:16:00,
2013-01-16 15:21:00,66.9,32.7,30.23,ENE,63,3.0,4.0,28,0.00,,,0.00,Wunderground v.1.13,2013-01-16 23:21:00,
2013-01-16 15:31:00,65.7,32.5,30.23,NE,46,4.0,7.0,29,0.00,,,0.00,Wunderground v.1.13,2013-01-16 23:31:00,
2013-01-16 15:36:00,65.6,32.5,30.23,NE,56,5.0,6.0,29,0.00,,,0.00,Wunderground v.1.13,2013-01-16 23:36:00,
2013-01-16 15:46:00,65.3,32.2,30.23,ENE,65,5.0,5.0,29,0.00,,,0.00,Wunderground v.1.13,2013-01-16 23:46:00,
2013-01-16 15:51:00,64.9,32.7,30.23,ENE,61,5.0,5.0,30,0.00,,,0.00,Wunderground v.1.13,2013-01-16 23:51:00,
2013-01-16 15:56:00,64.6,32.4,30.23,East,80,4.0,4.0,30,0.00,,,0.00,Wunderground v.1.13,2013-01-16 23:56:00,
2013-01-16 16:01:00,64.4,32.3,30.23,East,88,4.0,4.0,30,0.00,,,0.00,Wunderground v.1.13,2013-01-17 00:01:00,
2013-01-16 16:06:00,64.6,32.4,30.23,ENE,76,3.0,3.0,30,0.00,,,0.00,Wunderground v.1.13,2013-01-17 00:06:00,
2013-01-16 16:11:00,64.8,32.6,30.23,ENE,74,2.0,2.0,30,0.00,,,0.00,Wunderground v.1.13,2013-01-17 00:11:00,
2013-01-16 16:16:00,64.7,34.1,30.23,ENE,63,3.0,6.0,32,0.00,,,0.00,Wunderground v.1.13,2013-01-17 00:16:00,
2013-01-16 16:21:00,63.8,34.1,30.23,ENE,61,5.0,5.0,33,0.00,,,0.00,Wunderground v.1.13,2013-01-17 00:21:00,
2013-01-16 16:26:00,63.7,32.5,30.23,ENE,68,5.0,5.0,31,0.00,,,0.00,Wunderground v.1.13,2013-01-17 00:26:00,
2013-01-16 16:31:00,63.7,31.7,30.23,ENE,76,3.0,3.0,30,0.00,,,0.00,Wunderground v.1.13,2013-01-17 00:31:00,
2013-01-16 16:36:00,64.1,32.0,30.23,ENE,76,1.0,1.0,30,0.00,,,0.00,Wunderground v.1.13,2013-01-17 00:36:00,
2013-01-16 16:41:00,63.8,30.9,30.23,East,80,0.0,0.0,29,0.00,,,0.00,Wunderground v.1.13,2013-01-17 00:41:00,
2013-01-16 16:51:00,63.2,31.2,30.23,ENE,67,1.0,1.0,30,0.00,,,0.00,Wunderground v.1.13,2013-01-17 00:51:00,
2013-01-16 16:56:00,63.1,31.1,30.23,ENE,75,1.0,5.0,30,0.00,,,0.00,Wunderground v.1.13,2013-01-17 00:56:00,
2013-01-16 17:01:00,62.6,30.7,30.23,East,79,0.0,0.0,30,0.00,,,0.00,Wunderground v.1.13,2013-01-17 01:01:00,
2013-01-16 17:06:00,62.3,31.3,30.23,ENE,77,0.0,0.0,31,0.00,,,0.00,Wunderground v.1.13,2013-01-17 01:06:00,
2013-01-16 17:11:00,62.0,31.8,30.23,ENE,77,0.0,0.0,32,0.00,,,0.00,Wunderground v.1.13,2013-01-17 01:11:00,
2013-01-16 17:16:00,61.5,31.3,30.23,ENE,77,0.0,0.0,32,0.00,,,0.00,Wunderground v.1.13,2013-01-17 01:16:00,
2013-01-16 17:21:00,61.1,30.2,30.24,East,79,0.0,3.0,31,0.00,,,0.00,Wunderground v.1.13,2013-01-17 01:21:00,
2013-01-16 17:26:00,60.7,29.9,30.23,NE,49,1.0,1.0,31,0.00,,,0.00,Wunderground v.1.13,2013-01-17 01:26:00,
2013-01-16 17:31:00,60.4,30.4,30.24,NE,49,1.0,1.0,32,0.00,,,0.00,Wunderground v.1.13,2013-01-17 01:31:00,
2013-01-16 17:36:00,60.3,31.0,30.24,NE,49,0.0,0.0,33,0.00,,,0.00,Wunderground v.1.13,2013-01-17 01:36:00,
2013-01-16 17:46:00,59.9,32.2,30.24,NE,49,0.0,0.0,35,0.00,,,0.00,Wunderground v.1.13,2013-01-17 01:46:00,
2013-01-16 17:51:00,59.5,32.5,30.24,NE,49,0.0,0.0,36,0.00,,,0.00,Wunderground v.1.13,2013-01-17 01:51:00,
2013-01-16 17:56:00,59.2,32.9,30.24,NE,49,0.0,0.0,37,0.00,,,0.00,Wunderground v.1.13,2013-01-17 01:56:00,
2013-01-16 18:01:00,59.0,32.7,30.24,NE,49,0.0,0.0,37,0.00,,,0.00,Wunderground v.1.13,2013-01-17 02:01:00,
2013-01-16 18:06:00,59.0,33.4,30.25,NE,49,0.0,0.0,38,0.00,,,0.00,Wunderground v.1.13,2013-01-17 02:06:00,
2013-01-16 18:11:00,58.7,33.1,30.25,NE,49,0.0,0.0,38,0.00,,,0.00,Wunderground v.1.13,2013-01-17 02:11:00,
2013-01-16 18:16:00,58.3,33.4,30.24,NE,49,0.0,0.0,39,0.00,,,0.00,Wunderground v.1.13,2013-01-17 02:16:00,
2013-01-16 18:26:00,56.7,33.8,30.25,NE,49,0.0,0.0,42,0.00,,,0.00,Wunderground v.1.13,2013-01-17 02:26:00,
2013-01-16 18:36:00,55.8,34.8,30.25,NE,49,0.0,0.0,45,0.00,,,0.00,Wunderground v.1.13,2013-01-17 02:36:00,
2013-01-16 18:41:00,55.3,34.9,30.25,NE,49,0.0,0.0,46,0.00,,,0.00,Wunderground v.1.13,2013-01-17 02:41:00,
2013-01-16 18:46:00,54.7,34.8,30.25,NE,49,0.0,0.0,47,0.00,,,0.00,Wunderground v.1.13,2013-01-17 02:46:00,
2013-01-16 18:51:00,54.0,35.8,30.25,NE,49,0.0,0.0,50,0.00,,,0.00,Wunderground v.1.13,2013-01-17 02:51:00,
2013-01-16 18:56:00,53.1,35.9,30.25,NE,49,0.0,0.0,52,0.00,,,0.00,Wunderground v.1.13,2013-01-17 02:56:00,
2013-01-16 19:01:00,53.3,36.1,30.24,NE,49,0.0,0.0,52,0.00,,,0.00,Wunderground v.1.13,2013-01-17 03:01:00,
2013-01-16 19:11:00,52.7,36.0,30.24,NE,49,0.0,0.0,53,0.00,,,0.00,Wunderground v.1.13,2013-01-17 03:11:00,
2013-01-16 19:16:00,52.3,36.1,30.24,NE,49,0.0,0.0,54,0.00,,,0.00,Wunderground v.1.13,2013-01-17 03:16:00,
2013-01-16 19:21:00,52.0,35.9,30.24,SSE,150,0.0,2.0,54,0.00,,,0.00,Wunderground v.1.13,2013-01-17 03:21:00,
2013-01-16 19:26:00,52.0,36.8,30.24,SSE,151,0.0,0.0,56,0.00,,,0.00,Wunderground v.1.13,2013-01-17 03:26:00,
2013-01-16 19:31:00,51.6,35.9,30.24,SSE,150,0.0,0.0,55,0.00,,,0.00,Wunderground v.1.13,2013-01-17 03:31:00,
2013-01-16 19:36:00,51.3,36.1,30.24,SSE,151,0.0,0.0,56,0.00,,,0.00,Wunderground v.1.13,2013-01-17 03:36:00,
2013-01-16 19:41:00,51.0,35.8,30.24,SSE,151,0.0,0.0,56,0.00,,,0.00,Wunderground v.1.13,2013-01-17 03:41:00,
2013-01-16 19:46:00,50.9,35.7,30.24,SSE,151,0.0,0.0,56,0.00,,,0.00,Wunderground v.1.13,2013-01-17 03:46:00,
2013-01-16 19:56:00,50.8,35.2,30.23,SSE,159,0.0,2.0,55,0.00,,,0.00,Wunderground v.1.13,2013-01-17 03:56:00,
2013-01-16 20:06:00,50.4,35.3,30.23,SSE,163,1.0,1.0,56,0.00,,,0.00,Wunderground v.1.13,2013-01-17 04:06:00,
2013-01-16 20:11:00,50.2,35.1,30.23,SSE,164,0.0,0.0,56,0.00,,,0.00,Wunderground v.1.13,2013-01-17 04:11:00,
2013-01-16 20:16:00,50.3,35.2,30.23,South,180,1.0,4.0,56,0.00,,,0.00,Wunderground v.1.13,2013-01-17 04:16:00,
2013-01-16 20:21:00,50.3,35.2,30.23,SSE,168,2.0,4.0,56,0.00,,,0.00,Wunderground v.1.13,2013-01-17 04:21:00,
2013-01-16 20:26:00,50.2,35.1,30.23,SSE,165,1.0,1.0,56,0.00,,,0.00,Wunderground v.1.13,2013-01-17 04:26:00,
2013-01-16 20:36:00,50.0,34.9,30.23,South,177,1.0,2.0,56,0.00,,,0.00,Wunderground v.1.13,2013-01-17 04:36:00,
2013-01-16 20:41:00,49.9,34.4,30.23,South,180,1.0,1.0,55,0.00,,,0.00,Wunderground v.1.13,2013-01-17 04:41:00,
2013-01-16 20:46:00,49.5,34.4,30.22,SSE,155,1.0,1.0,56,0.00,,,0.00,Wunderground v.1.13,2013-01-17 04:46:00,
2013-01-16 20:51:00,49.3,34.3,30.22,South,184,1.0,5.0,56,0.00,,,0.00,Wunderground v.1.13,2013-01-17 04:51:00,
2013-01-16 21:06:00,49.9,34.4,30.22,South,171,3.0,4.0,55,0.00,,,0.00,Wunderground v.1.13,2013-01-17 05:06:00,
2013-01-16 21:11:00,49.5,34.4,30.22,SSE,157,3.0,3.0,56,0.00,,,0.00,Wunderground v.1.13,2013-01-17 05:11:00,
2013-01-16 21:16:00,48.9,34.3,30.22,South,171,3.0,3.0,57,0.00,,,0.00,Wunderground v.1.13,2013-01-17 05:16:00,
2013-01-16 21:21:00,48.8,34.2,30.22,South,183,3.0,3.0,57,0.00,,,0.00,Wunderground v.1.13,2013-01-17 05:21:00,
2013-01-16 21:26:00,49.0,34.4,30.22,SSE,165,4.0,4.0,57,0.00,,,0.00,Wunderground v.1.13,2013-01-17 05:26:00,
2013-01-16 21:31:00,49.1,34.9,30.22,South,176,4.0,4.0,58,0.00,,,0.00,Wunderground v.1.13,2013-01-17 05:31:00,
2013-01-16 21:36:00,48.8,34.7,30.22,SSE,167,2.0,6.0,58,0.00,,,0.00,Wunderground v.1.13,2013-01-17 05:36:00,
2013-01-16 21:46:00,48.9,34.3,30.21,South,180,5.0,5.0,57,0.00,,,0.00,Wunderground v.1.13,2013-01-17 05:46:00,
2013-01-16 21:51:00,48.8,34.2,30.22,South,177,6.0,6.0,57,0.00,,,0.00,Wunderground v.1.13,2013-01-17 05:51:00,
2013-01-16 21:56:00,48.5,33.5,30.22,South,188,6.0,6.0,56,0.00,,,0.00,Wunderground v.1.13,2013-01-17 05:56:00,
2013-01-16 22:01:00,48.3,33.3,30.21,South,191,6.0,6.0,56,0.00,,,0.00,Wunderground v.1.13,2013-01-17 06:01:00,
2013-01-16 22:06:00,48.4,33.4,30.22,South,182,5.0,5.0,56,0.00,,,0.00,Wunderground v.1.13,2013-01-17 06:06:00,
2013-01-16 22:11:00,48.1,33.6,30.21,South,174,4.0,4.0,57,0.00,,,0.00,Wunderground v.1.13,2013-01-17 06:11:00,
2013-01-16 22:16:00,48.0,33.5,30.22,South,182,4.0,4.0,57,0.00,,,0.00,Wunderground v.1.13,2013-01-17 06:16:00,
2013-01-16 22:21:00,48.4,33.9,30.22,South,190,6.0,7.0,57,0.00,,,0.00,Wunderground v.1.13,2013-01-17 06:21:00,
2013-01-16 22:26:00,48.4,33.9,30.21,South,186,6.0,6.0,57,0.00,,,0.00,Wunderground v.1.13,2013-01-17 06:26:00,
2013-01-16 22:31:00,48.1,34.0,30.21,South,170,5.0,5.0,58,0.00,,,0.00,Wunderground v.1.13,2013-01-17 06:31:00,
2013-01-16 22:41:00,47.8,33.3,30.21,South,180,5.0,12.0,57,0.00,,,0.00,Wunderground v.1.13,2013-01-17 06:41:00,
2013-01-16 22:46:00,48.1,33.6,30.21,South,184,6.0,6.0,57,0.00,,,0.00,Wunderground v.1.13,2013-01-17 06:46:00,
2013-01-16 22:51:00,48.2,33.7,30.21,South,186,6.0,6.0,57,0.00,,,0.00,Wunderground v.1.13,2013-01-17 06:51:00,
2013-01-16 22:56:00,48.4,33.4,30.21,South,173,5.0,5.0,56,0.00,,,0.00,Wunderground v.1.13,2013-01-17 06:56:00,
2013-01-16 23:01:00,48.1,33.6,30.21,South,189,5.0,11.0,57,0.00,,,0.00,Wunderground v.1.13,2013-01-17 07:01:00,
2013-01-16 23:11:00,47.7,33.2,30.21,South,177,6.0,6.0,57,0.00,,,0.00,Wunderground v.1.13,2013-01-17 07:11:00,
2013-01-16 23:16:00,47.9,32.9,30.21,South,177,6.0,6.0,56,0.00,,,0.00,Wunderground v.1.13,2013-01-17 07:16:00,
2013-01-16 23:21:00,48.1,33.1,30.21,South,187,6.0,6.0,56,0.00,,,0.00,Wunderground v.1.13,2013-01-17 07:21:00,
2013-01-16 23:26:00,48.0,33.0,30.21,South,171,5.0,5.0,56,0.00,,,0.00,Wunderground v.1.13,2013-01-17 07:26:00,
2013-01-16 23:36:00,48.3,33.8,30.21,South,173,5.0,5.0,57,0.00,,,0.00,Wunderground v.1.13,2013-01-17 07:36:00,
2013-01-16 23:41:00,47.9,33.8,30.21,South,170,5.0,5.0,58,0.00,,,0.00,Wunderground v.1.13,2013-01-17 07:41:00,
2013-01-16 23:46:00,48.1,34.0,30.21,South,172,5.0,9.0,58,0.00,,,0.00,Wunderground v.1.13,2013-01-17 07:46:00,
2013-01-16 23:56:00,47.7,34.1,30.21,South,170,6.0,6.0,59,0.00,,,0.00,Wunderground v.1.13,2013-01-17 07:56:00,